TimeCEST,TemperatureF,Dew PointF,Humidity,Sea Level PressureIn,VisibilityMPH,Wind Direction,Wind SpeedMPH,Gust SpeedMPH,PrecipitationIn,Events,Conditions,WindDirDegrees,DateUTC
12:25 AM,50.0,50.0,100,29.62,0.2,WSW,1.2,-,N/A,Fog,Fog,240,2013-05-29 22:25:00
12:55 AM,48.2,48.2,100,29.62,0.2,WSW,1.2,-,N/A,Fog,Fog,240,2013-05-29 22:55:00
1:25 AM,48.2,48.2,100,29.62,0.2,WSW,1.2,-,N/A,Fog,Fog,240,2013-05-29 23:25:00
1:55 AM,50.0,50.0,100,29.62,0.2,WSW,2.3,-,N/A,Fog,Fog,240,2013-05-29 23:55:00
2:00 AM,50,50,98,29.65,0,WSW,2.2,,,Fog,Fog,240,2013-05-30 00:00:00
2:25 AM,50.0,50.0,100,29.62,0.2,WSW,2.3,-,N/A,Fog,Fog,240,2013-05-30 00:25:00
2:55 AM,50.0,50.0,100,29.62,0.2,WSW,1.2,-,N/A,Fog,Fog,250,2013-05-30 00:55:00
3:25 AM,50.0,50.0,100,29.65,0.2,WSW,1.2,-,N/A,Fog,Fog,240,2013-05-30 01:25:00
3:55 AM,50.0,50.0,100,29.65,0.2,WSW,2.3,-,N/A,Fog,Fog,240,2013-05-30 01:55:00
4:25 AM,50.0,50.0,100,29.65,0.2,Calm,Calm,-,N/A,Fog,Fog,0,2013-05-30 02:25:00
4:55 AM,51.8,50.0,94,29.65,-9999.0,WSW,1.2,-,N/A,Fog,Fog,240,2013-05-30 02:55:00
5:00 AM,51,51,99,29.67,0,Calm,Calm,,,Fog,Fog,,2013-05-30 03:00:00
5:25 AM,51.8,50.0,94,29.65,0.7,WSW,1.2,-,N/A,,Overcast,240,2013-05-30 03:25:00
5:55 AM,51.8,50.0,94,29.65,-9999.0,WSW,1.2,-,N/A,Fog,Fog,240,2013-05-30 03:55:00
6:25 AM,51.8,51.8,100,29.68,0.9,WSW,1.2,-,N/A,,Overcast,240,2013-05-30 04:25:00
6:55 AM,51.8,51.8,100,29.68,1.1,WSW,1.2,-,N/A,,Overcast,240,2013-05-30 04:55:00
7:25 AM,51.8,51.8,100,29.68,1.2,WSW,1.2,-,N/A,,Partly Cloudy,240,2013-05-30 05:25:00
7:55 AM,51.8,51.8,100,29.71,1.2,SSW,1.2,-,N/A,,Overcast,210,2013-05-30 05:55:00
8:00 AM,53,52,96,29.72,1,,2.2,,,,Mist,,2013-05-30 06:00:00
8:25 AM,53.6,51.8,94,29.71,1.6,NE,3.5,-,N/A,,Overcast,40,2013-05-30 06:25:00
8:55 AM,53.6,51.8,94,29.71,1.6,Variable,2.3,-,N/A,,Partly Cloudy,0,2013-05-30 06:55:00
9:25 AM,53.6,51.8,94,29.71,1.6,NE,2.3,-,N/A,,Light Drizzle,40,2013-05-30 07:25:00
9:55 AM,55.4,53.6,94,29.71,-9999.0,Variable,1.2,-,N/A,,Partly Cloudy,0,2013-05-30 07:55:00
10:25 AM,55.4,51.8,88,29.74,2.8,NNE,3.5,-,N/A,,Overcast,20,2013-05-30 08:25:00
10:55 AM,55.4,51.8,88,29.74,-9999.0,ENE,3.5,-,N/A,,Overcast,60,2013-05-30 08:55:00
11:00 AM,55,52,88,29.76,3,East,4.5,,,,Mist,90,2013-05-30 09:00:00
11:25 AM,55.4,53.6,94,29.74,-9999.0,Variable,2.3,-,N/A,,Overcast,0,2013-05-30 09:25:00
11:55 AM,57.2,53.6,88,29.74,3.1,Variable,2.3,-,N/A,,Overcast,0,2013-05-30 09:55:00
12:25 PM,57.2,51.8,82,29.74,3.1,NE,3.5,-,N/A,,Overcast,40,2013-05-30 10:25:00
12:55 PM,59.0,51.8,77,29.77,3.7,ENE,3.5,-,N/A,,Overcast,60,2013-05-30 10:55:00
1:25 PM,59.0,51.8,77,29.77,3.7,Variable,1.2,-,N/A,,Overcast,0,2013-05-30 11:25:00
1:55 PM,59.0,51.8,77,29.77,4.3,Variable,2.3,-,N/A,,Mostly Cloudy,0,2013-05-30 11:55:00
2:00 PM,60,53,70,29.79,4,,2.2,,,,Light Haze,,2013-05-30 12:00:00
2:25 PM,60.8,51.8,72,29.77,4.3,Variable,2.3,-,N/A,,Mostly Cloudy,0,2013-05-30 12:25:00
2:55 PM,62.6,51.8,68,29.77,5.0,East,3.5,-,N/A,,Partly Cloudy,100,2013-05-30 12:55:00
3:25 PM,62.6,51.8,68,29.77,5.0,SE,3.5,-,N/A,,Overcast,130,2013-05-30 13:25:00
3:55 PM,62.6,53.6,72,29.77,5.6,Variable,2.3,-,N/A,,Overcast,0,2013-05-30 13:55:00
4:25 PM,62.6,51.8,68,29.77,6.2,Variable,2.3,-,N/A,,Overcast,0,2013-05-30 14:25:00
4:55 PM,62.6,51.8,68,29.77,5.6,Variable,2.3,-,N/A,,Scattered Clouds,0,2013-05-30 14:55:00
5:00 PM,63,52,59,29.80,6,,2.2,,,,Light Haze,,2013-05-30 15:00:00
5:25 PM,60.8,55.4,82,29.80,4.3,NNW,8.1,-,N/A,,Overcast,340,2013-05-30 15:25:00
5:55 PM,60.8,55.4,82,29.80,5.0,North,6.9,-,N/A,,Overcast,360,2013-05-30 15:55:00
6:25 PM,60.8,55.4,82,29.80,3.7,North,8.1,-,N/A,,Unknown,350,2013-05-30 16:25:00
6:55 PM,60.8,55.4,82,29.80,3.7,North,9.2,-,N/A,,Mostly Cloudy,360,2013-05-30 16:55:00
7:25 PM,60.8,55.4,82,29.80,5.6,North,8.1,-,N/A,,Overcast,10,2013-05-30 17:25:00
7:55 PM,60.8,55.4,82,29.80,6.2,North,5.8,-,N/A,,Partly Cloudy,10,2013-05-30 17:55:00
8:00 PM,60,55,78,29.83,7,North,4.5,,,,Partly Cloudy,0,2013-05-30 18:00:00
8:25 PM,60.8,55.4,82,29.83,5.6,North,6.9,-,N/A,,Mostly Cloudy,350,2013-05-30 18:25:00
8:55 PM,59.0,55.4,88,29.83,6.2,North,5.8,-,N/A,,Unknown,10,2013-05-30 18:55:00
9:25 PM,59.0,55.4,88,29.83,6.2,NNW,5.8,-,N/A,,Unknown,340,2013-05-30 19:25:00
9:55 PM,57.2,55.4,94,29.83,4.3,North,5.8,-,N/A,,Mostly Cloudy,350,2013-05-30 19:55:00
10:25 PM,55.4,53.6,94,29.83,3.7,NNW,6.9,-,N/A,,Unknown,340,2013-05-30 20:25:00
10:55 PM,55.4,53.6,94,29.83,1.7,NW,6.9,-,N/A,,Partly Cloudy,320,2013-05-30 20:55:00
11:00 PM,54,54,99,29.84,1,NW,8.9,,,,Mist,320,2013-05-30 21:00:00
11:25 PM,53.6,53.6,100,29.83,1.4,NNW,8.1,-,N/A,,Mostly Cloudy,330,2013-05-30 21:25:00
11:55 PM,53.6,53.6,100,29.83,1.2,NNW,10.4,-,N/A,,Overcast,330,2013-05-30 21:55:00